,,,PA_Meas_PMT16A,,PR_Meas_QMR101_102,,RH_Meas_QMH101,,SR_Meas_QMS101,,TA_Meas_QMH101,,GenWind,,GenWind,
date,time,status,PA,status,PR,status,RH,status,SR,status,TA,status,DirAvg,status,SpdAvg,
2008-11-26, 00:00:04,VALID,1003.52,VALID,0,VALID,95.3534,VALID,0.100563,VALID,23.723,VALID,345,VALID,0.255859,
2008-11-26, 00:01:04,VALID,1003.5,VALID,0,VALID,95.3305,VALID,0,VALID,23.6823,VALID,345,VALID,0.457422,
2008-11-26, 00:02:04,VALID,1003.48,VALID,0,VALID,95.361,VALID,0,VALID,23.7035,VALID,345,VALID,0.414063,
2008-11-26, 00:03:04,VALID,1003.47,VALID,0,VALID,95.3839,VALID,0,VALID,23.7017,VALID,345,VALID,0.389453,
2008-11-26, 00:04:04,VALID,1003.46,VALID,0,VALID,95.361,VALID,0.100563,VALID,23.7035,VALID,345,VALID,0.499609,
2008-11-26, 00:05:04,VALID,1003.45,VALID,0,VALID,95.3229,VALID,0,VALID,23.7035,VALID,345,VALID,0.4375,
2008-11-26, 00:06:04,VALID,1003.45,VALID,0,VALID,95.3457,VALID,0,VALID,23.6823,VALID,345,VALID,0.416406,
2008-11-26, 00:07:04,VALID,1003.47,VALID,0,VALID,95.3534,VALID,0,VALID,23.6823,VALID,345,VALID,0.422656,
2008-11-26, 00:08:04,VALID,1003.46,VALID,0,VALID,95.361,VALID,0,VALID,23.6823,VALID,345,VALID,0.344141,
2008-11-26, 00:09:04,VALID,1003.44,VALID,0,VALID,95.3305,VALID,0,VALID,23.6628,VALID,345,VALID,0.310547,
2008-11-26, 00:10:04,VALID,1003.41,VALID,0,VALID,95.3305,VALID,0.100563,VALID,23.6841,VALID,345,VALID,0.324219,
2008-11-26, 00:11:04,VALID,1003.4,VALID,0,VALID,95.3457,VALID,0,VALID,23.6841,VALID,345,VALID,0.273828,
2008-11-26, 00:12:04,VALID,1003.4,VALID,0,VALID,95.3381,VALID,0,VALID,23.6823,VALID,345,VALID,0.248437,
2008-11-26, 00:13:04,VALID,1003.38,VALID,0,VALID,95.3457,VALID,0.100563,VALID,23.6416,VALID,345,VALID,0.448047,
2008-11-26, 00:14:04,VALID,1003.36,VALID,0,VALID,95.3534,VALID,0,VALID,23.6841,VALID,345,VALID,0.501562,
2008-11-26, 00:15:04,VALID,1003.37,VALID,0,VALID,95.361,VALID,0,VALID,23.6646,VALID,345,VALID,0.301562,
2008-11-26, 00:16:04,VALID,1003.39,VALID,0,VALID,95.3534,VALID,0.100563,VALID,23.6841,VALID,345,VALID,0.452734,
2008-11-26, 00:17:04,VALID,1003.36,VALID,0,VALID,95.3686,VALID,0.100563,VALID,23.6434,VALID,345,VALID,0.371484,
2008-11-26, 00:18:04,VALID,1003.36,VALID,0,VALID,95.361,VALID,0,VALID,23.6646,VALID,345,VALID,0.45625,
2008-11-26, 00:19:04,VALID,1003.34,VALID,0,VALID,95.3991,VALID,0.100563,VALID,23.6841,VALID,345,VALID,0.390625,
2008-11-26, 00:20:04,VALID,1003.34,VALID,0,VALID,95.3991,VALID,0.100563,VALID,23.6646,VALID,345,VALID,0.382422,
2008-11-26, 00:21:04,VALID,1003.34,VALID,0,VALID,95.422,VALID,0,VALID,23.6434,VALID,345,VALID,0.432031,
2008-11-26, 00:22:04,VALID,1003.32,VALID,0,VALID,95.4144,VALID,0,VALID,23.6841,VALID,345,VALID,0.435937,
2008-11-26, 00:23:04,VALID,1003.32,VALID,0,VALID,95.4297,VALID,0.100563,VALID,23.6841,VALID,345,VALID,0.389844,
2008-11-26, 00:24:04,VALID,1003.27,VALID,0,VALID,95.4449,VALID,0,VALID,23.6628,VALID,345,VALID,0.596484,
2008-11-26, 00:25:04,VALID,1003.29,VALID,0,VALID,95.4754,VALID,0.100563,VALID,23.6841,VALID,345,VALID,0.392188,
2008-11-26, 00:26:04,VALID,1003.24,VALID,0,VALID,95.4907,VALID,0.100563,VALID,23.6841,VALID,345,VALID,0.45625,
2008-11-26, 00:27:04,VALID,1003.22,VALID,0,VALID,95.4678,VALID,0,VALID,23.6628,VALID,345,VALID,0.473437,
2008-11-26, 00:28:04,VALID,1003.2,VALID,0,VALID,95.4754,VALID,0,VALID,23.6841,VALID,345,VALID,0.476563,
2008-11-26, 00:29:04,VALID,1003.17,VALID,0,VALID,95.4754,VALID,0,VALID,23.6841,VALID,345,VALID,0.391406,
2008-11-26, 00:30:04,VALID,1003.13,VALID,0,VALID,95.4602,VALID,0,VALID,23.6841,VALID,345,VALID,0.342578,
2008-11-26, 00:31:04,VALID,1003.09,VALID,0,VALID,95.4831,VALID,0.100563,VALID,23.6628,VALID,345,VALID,0.396094,
2008-11-26, 00:32:04,VALID,1003.08,VALID,0,VALID,95.4831,VALID,0,VALID,23.6841,VALID,345,VALID,0.283203,
2008-11-26, 00:33:04,VALID,1003.05,VALID,0,VALID,95.4754,VALID,0,VALID,23.7035,VALID,345,VALID,0.383984,
2008-11-26, 00:34:04,VALID,1003.02,VALID,0,VALID,95.4678,VALID,0,VALID,23.6628,VALID,345,VALID,0.316406,
2008-11-26, 00:35:04,VALID,1003.02,VALID,0,VALID,95.422,VALID,0.100563,VALID,23.7035,VALID,345,VALID,0.331641,
2008-11-26, 00:36:04,VALID,1002.99,VALID,0,VALID,95.4449,VALID,0,VALID,23.6628,VALID,345,VALID,0.306641,
2008-11-26, 00:37:04,VALID,1003.01,VALID,0,VALID,95.5288,VALID,0.100563,VALID,23.6823,VALID,345,VALID,0.305859,
2008-11-26, 00:38:04,VALID,1002.95,VALID,0,VALID,95.5365,VALID,0.100563,VALID,23.6823,VALID,345,VALID,0.353516,
2008-11-26, 00:39:04,VALID,1002.93,VALID,0,VALID,95.5212,VALID,0,VALID,23.6823,VALID,345,VALID,0.324219,
2008-11-26, 00:40:04,VALID,1002.94,VALID,0,VALID,95.5212,VALID,0,VALID,23.6823,VALID,345,VALID,0.235156,
2008-11-26, 00:41:04,VALID,1002.92,VALID,0,VALID,95.5288,VALID,0,VALID,23.7035,VALID,345,VALID,0.308203,
2008-11-26, 00:42:04,VALID,1002.92,VALID,0,VALID,95.5212,VALID,0,VALID,23.6823,VALID,345,VALID,0.402344,
2008-11-26, 00:43:04,VALID,1002.88,VALID,0,VALID,95.4983,VALID,0.100563,VALID,23.723,VALID,345,VALID,0.350781,
2008-11-26, 00:44:04,VALID,1002.86,VALID,0,VALID,95.4983,VALID,0,VALID,23.7425,VALID,345,VALID,0.330859,
2008-11-26, 00:45:04,VALID,1002.87,VALID,0,VALID,95.4983,VALID,0,VALID,23.723,VALID,345,VALID,0.410547,
2008-11-26, 00:46:04,VALID,1002.87,VALID,0,VALID,95.4754,VALID,0,VALID,23.723,VALID,345,VALID,0.356641,
2008-11-26, 00:47:04,VALID,1002.83,VALID,0,VALID,95.4831,VALID,0.100563,VALID,23.7017,VALID,345,VALID,0.483203,
2008-11-26, 00:48:04,VALID,1002.83,VALID,0,VALID,95.4526,VALID,0,VALID,23.7017,VALID,345,VALID,0.426953,
2008-11-26, 00:49:04,VALID,1002.85,VALID,0,VALID,95.4831,VALID,0.100563,VALID,23.7425,VALID,345,VALID,0.523828,
2008-11-26, 00:50:04,VALID,1002.83,VALID,0,VALID,95.4526,VALID,0,VALID,23.723,VALID,345,VALID,0.626562,
2008-11-26, 00:51:04,VALID,1002.83,VALID,0,VALID,95.4526,VALID,0.100563,VALID,23.7212,VALID,345,VALID,0.612109,
2008-11-26, 00:52:04,VALID,1002.79,VALID,0,VALID,95.4602,VALID,0,VALID,23.7017,VALID,345,VALID,0.611328,
2008-11-26, 00:53:04,VALID,1002.77,VALID,0,VALID,95.4602,VALID,0.100563,VALID,23.7212,VALID,345,VALID,0.553906,
2008-11-26, 00:54:04,VALID,1002.79,VALID,0,VALID,95.4144,VALID,0,VALID,23.723,VALID,345,VALID,0.469531,
2008-11-26, 00:55:04,VALID,1002.75,VALID,0,VALID,95.4297,VALID,0,VALID,23.723,VALID,345,VALID,0.534766,
2008-11-26, 00:56:04,VALID,1002.72,VALID,0,VALID,95.4373,VALID,0,VALID,23.723,VALID,345,VALID,0.474219,
2008-11-26, 00:57:04,VALID,1002.71,VALID,0,VALID,95.4144,VALID,0,VALID,23.723,VALID,345,VALID,0.282422,
2008-11-26, 00:58:04,VALID,1002.69,VALID,0,VALID,95.4144,VALID,0,VALID,23.7035,VALID,345,VALID,0.378516,
2008-11-26, 00:59:04,VALID,1002.69,VALID,0,VALID,95.3763,VALID,0,VALID,23.7035,VALID,345,VALID,0.508984,
2008-11-26, 01:00:04,VALID,1002.66,VALID,0,VALID,95.361,VALID,0,VALID,23.7035,VALID,346,VALID,0.416016,
2008-11-26, 01:01:04,VALID,1002.64,VALID,0,VALID,95.3534,VALID,0,VALID,23.6823,VALID,347,VALID,0.567578,
2008-11-26, 01:02:04,VALID,1002.64,VALID,0,VALID,95.3534,VALID,0,VALID,23.7035,VALID,349,VALID,0.485156,
2008-11-26, 01:03:04,VALID,1002.6,VALID,0,VALID,95.3,VALID,0,VALID,23.723,VALID,349,VALID,0.548047,
2008-11-26, 01:04:04,VALID,1002.6,VALID,0,VALID,95.2237,VALID,0,VALID,23.723,VALID,351,VALID,0.469141,
2008-11-26, 01:05:04,VALID,1002.6,VALID,0,VALID,95.1627,VALID,0,VALID,23.7425,VALID,351,VALID,0.0984375,
2008-11-26, 01:06:04,VALID,1002.59,VALID,0,VALID,95.0864,VALID,0,VALID,23.7814,VALID,351,VALID,0.480078,
2008-11-26, 01:07:04,VALID,1002.61,VALID,0,VALID,94.9948,VALID,0,VALID,23.7814,VALID,351,VALID,0.473047,
2008-11-26, 01:08:04,VALID,1002.6,VALID,0,VALID,94.9033,VALID,0,VALID,23.8009,VALID,351,VALID,0.490625,
2008-11-26, 01:09:04,VALID,1002.59,VALID,0,VALID,94.8041,VALID,0,VALID,23.8009,VALID,352,VALID,0.562891,
2008-11-26, 01:10:04,VALID,1002.57,VALID,0,VALID,94.7202,VALID,0,VALID,23.8203,VALID,352,VALID,0.528906,
2008-11-26, 01:11:04,VALID,1002.58,VALID,0,VALID,94.5981,VALID,0,VALID,23.7991,VALID,352,VALID,0.455078,
2008-11-26, 01:12:04,VALID,1002.57,VALID,0,VALID,94.5447,VALID,0.100563,VALID,23.8203,VALID,352,VALID,0.507422,
2008-11-26, 01:13:04,VALID,1002.57,VALID,0,VALID,94.4227,VALID,0,VALID,23.8203,VALID,352,VALID,0.456641,
2008-11-26, 01:14:04,VALID,1002.56,VALID,0,VALID,94.3387,VALID,0,VALID,23.8203,VALID,352,VALID,0.318359,
2008-11-26, 01:15:04,VALID,1002.51,VALID,0,VALID,94.2472,VALID,0,VALID,23.8203,VALID,352,VALID,0.262109,
2008-11-26, 01:16:04,VALID,1002.52,VALID,0,VALID,94.1785,VALID,0,VALID,23.8203,VALID,352,VALID,0.30625,
2008-11-26, 01:17:04,VALID,1002.52,VALID,0,VALID,94.0565,VALID,0,VALID,23.8593,VALID,352,VALID,0.0660156,
2008-11-26, 01:18:04,VALID,1002.5,VALID,0,VALID,93.8581,VALID,0,VALID,23.8593,VALID,352,VALID,0.342578,
2008-11-26, 01:19:04,VALID,1002.47,VALID,0,VALID,93.7055,VALID,0,VALID,23.8787,VALID,352,VALID,0.548828,
2008-11-26, 01:20:04,VALID,1002.48,VALID,0,VALID,93.4614,VALID,0,VALID,23.8982,VALID,353,VALID,0.390234,
2008-11-26, 01:21:04,VALID,1002.49,VALID,0,VALID,93.2631,VALID,0,VALID,23.9371,VALID,353,VALID,0.378125,
2008-11-26, 01:22:04,VALID,1002.44,VALID,0,VALID,92.9884,VALID,0,VALID,23.9566,VALID,352,VALID,0.539844,
2008-11-26, 01:23:04,VALID,1002.42,VALID,0,VALID,92.8587,VALID,0,VALID,23.9742,VALID,352,VALID,0.503516,
2008-11-26, 01:24:04,VALID,1002.45,VALID,0,VALID,92.546,VALID,0.100563,VALID,23.9955,VALID,355,VALID,0.387109,
2008-11-26, 01:25:04,VALID,1002.41,VALID,0,VALID,92.4544,VALID,0,VALID,24.015,VALID,353,VALID,0,
2008-11-26, 01:26:04,VALID,1002.42,VALID,0,VALID,92.4391,VALID,0,VALID,23.9937,VALID,353,VALID,0,
2008-11-26, 01:27:04,VALID,1002.41,VALID,0,VALID,92.34,VALID,0.100563,VALID,24.015,VALID,353,VALID,0.533984,
2008-11-26, 01:28:04,VALID,1002.42,VALID,0,VALID,92.34,VALID,0,VALID,24.015,VALID,354,VALID,0.539844,
2008-11-26, 01:29:04,VALID,1002.4,VALID,0,VALID,92.073,VALID,0,VALID,24.015,VALID,353,VALID,0.0855469,
2008-11-26, 01:30:04,VALID,1002.4,VALID,0,VALID,91.9433,VALID,0,VALID,24.0168,VALID,353,VALID,0.237891,
2008-11-26, 01:31:04,VALID,1002.37,VALID,0,VALID,91.6991,VALID,0,VALID,24.0363,VALID,354,VALID,0.810156,
2008-11-26, 01:32:04,VALID,1002.37,VALID,0,VALID,91.3406,VALID,0,VALID,24.0539,VALID,353,VALID,0.607813,
2008-11-26, 01:33:04,VALID,1002.35,VALID,0,VALID,90.9134,VALID,0,VALID,24.0929,VALID,355,VALID,0.745313,
2008-11-26, 01:34:04,VALID,1002.35,VALID,0,VALID,90.6845,VALID,0,VALID,24.1707,VALID,342,VALID,0.439844,
2008-11-26, 01:35:04,VALID,1002.35,VALID,0,VALID,90.6006,VALID,0,VALID,24.2097,VALID,346,VALID,0.753516,
2008-11-26, 01:36:04,VALID,1002.32,VALID,0,VALID,90.4785,VALID,0,VALID,24.2291,VALID,343,VALID,0.234375,
2008-11-26, 01:37:04,VALID,1002.3,VALID,0,VALID,90.3565,VALID,0,VALID,24.2486,VALID,351,VALID,0.660937,
2008-11-26, 01:38:04,VALID,1002.33,VALID,0,VALID,90.2268,VALID,0,VALID,24.2681,VALID,344,VALID,0.199609,
2008-11-26, 01:39:04,VALID,1002.31,VALID,0,VALID,90.0894,VALID,0,VALID,24.307,VALID,357,VALID,0.715625,
2008-11-26, 01:40:04,VALID,1002.29,VALID,0,VALID,89.9292,VALID,0,VALID,24.3459,VALID,295,VALID,0.424219,
2008-11-26, 01:41:04,VALID,1002.28,VALID,0,VALID,89.769,VALID,0,VALID,24.4238,VALID,349,VALID,0.469531,
2008-11-26, 01:42:04,VALID,1002.26,VALID,0,VALID,89.4868,VALID,0,VALID,24.4822,VALID,338,VALID,0.190625,
2008-11-26, 01:43:04,VALID,1002.25,VALID,0,VALID,89.441,VALID,0,VALID,24.5212,VALID,317,VALID,0.221875,
2008-11-26, 01:44:04,VALID,1002.24,VALID,0,VALID,89.2426,VALID,0,VALID,24.5406,VALID,333,VALID,0.279297,
2008-11-26, 01:45:04,VALID,1002.24,VALID,0,VALID,89.0367,VALID,0,VALID,24.5796,VALID,359,VALID,0.705078,
2008-11-26, 01:46:04,VALID,1002.24,VALID,0,VALID,88.8841,VALID,0,VALID,24.638,VALID,337,VALID,0.425,
2008-11-26, 01:47:04,VALID,1002.21,VALID,0,VALID,88.7086,VALID,0,VALID,24.6769,VALID,340,VALID,0.613672,
2008-11-26, 01:48:04,VALID,1002.24,VALID,0,VALID,88.6018,VALID,0.100563,VALID,24.6945,VALID,355,VALID,0.700391,
2008-11-26, 01:49:04,VALID,1002.22,VALID,0,VALID,88.4492,VALID,0,VALID,24.7548,VALID,354,VALID,0.326562,
2008-11-26, 01:50:04,VALID,1002.19,VALID,0,VALID,88.4492,VALID,0,VALID,24.7548,VALID,355,VALID,0.129297,
2008-11-26, 01:51:04,VALID,1002.22,VALID,0,VALID,88.5484,VALID,0,VALID,24.7761,VALID,355,VALID,0.237891,
2008-11-26, 01:52:04,VALID,1002.18,VALID,0,VALID,88.5026,VALID,0,VALID,24.7353,VALID,353,VALID,0.117969,
2008-11-26, 01:53:04,VALID,1002.18,VALID,0,VALID,88.5484,VALID,0,VALID,24.7353,VALID,353,VALID,0.202734,
2008-11-26, 01:54:04,VALID,1002.16,VALID,0,VALID,88.5713,VALID,0,VALID,24.7353,VALID,352,VALID,0.178125,
2008-11-26, 01:55:04,VALID,1002.16,VALID,0,VALID,88.7086,VALID,0,VALID,24.7353,VALID,350,VALID,0.00195313,
2008-11-26, 01:56:04,VALID,1002.16,VALID,0,VALID,88.6934,VALID,0.100563,VALID,24.7548,VALID,350,VALID,0.375391,
2008-11-26, 01:57:04,VALID,1002.13,VALID,0,VALID,88.5942,VALID,0,VALID,24.714,VALID,350,VALID,0,
2008-11-26, 01:58:04,VALID,1002.15,VALID,0,VALID,88.6094,VALID,0,VALID,24.7548,VALID,346,VALID,0.503906,
2008-11-26, 01:59:04,VALID,1002.08,VALID,0,VALID,88.5103,VALID,0,VALID,24.7743,VALID,347,VALID,0.816406,
2008-11-26, 02:00:04,VALID,1002.1,VALID,0,VALID,88.3958,VALID,0,VALID,24.8132,VALID,354,VALID,0.982813,
2008-11-26, 02:01:04,VALID,1002.12,VALID,0,VALID,88.228,VALID,0,VALID,24.8522,VALID,353,VALID,0.478516,
2008-11-26, 02:02:04,VALID,1002.1,VALID,0,VALID,88.0449,VALID,0.100563,VALID,24.8911,VALID,342,VALID,0.55625,
2008-11-26, 02:03:04,VALID,1002.1,VALID,0,VALID,87.9457,VALID,0,VALID,24.8911,VALID,350,VALID,0.794141,
2008-11-26, 02:04:04,VALID,1002.09,VALID,0,VALID,87.8923,VALID,0,VALID,24.9106,VALID,348,VALID,0.347266,
2008-11-26, 02:05:04,VALID,1002.07,VALID,0,VALID,87.8542,VALID,0,VALID,24.9106,VALID,348,VALID,0.376563,
2008-11-26, 02:06:04,VALID,1002.07,VALID,0,VALID,87.9534,VALID,0,VALID,24.9106,VALID,348,VALID,0.453125,
2008-11-26, 02:07:04,VALID,1002.07,VALID,0,VALID,88.022,VALID,0,VALID,24.8716,VALID,350,VALID,0.362891,
2008-11-26, 02:08:04,VALID,1002.05,VALID,0,VALID,88.1899,VALID,0,VALID,24.8716,VALID,356,VALID,0.0195313,
2008-11-26, 02:09:04,VALID,1002.04,VALID,0,VALID,88.2967,VALID,0,VALID,24.8522,VALID,356,VALID,0,
2008-11-26, 02:10:04,VALID,1002.04,VALID,0,VALID,88.4035,VALID,0,VALID,24.8132,VALID,356,VALID,0.418359,
2008-11-26, 02:11:04,VALID,1002.01,VALID,0,VALID,88.4798,VALID,0,VALID,24.7937,VALID,348,VALID,0.509375,
2008-11-26, 02:12:04,VALID,1001.99,VALID,0,VALID,88.5484,VALID,0,VALID,24.7743,VALID,346,VALID,0.469531,
2008-11-26, 02:13:04,VALID,1001.97,VALID,0,VALID,88.5408,VALID,0,VALID,24.7743,VALID,347,VALID,0.488672,
2008-11-26, 02:14:04,VALID,1001.99,VALID,0,VALID,88.6094,VALID,0,VALID,24.7743,VALID,342,VALID,0.264453,
2008-11-26, 02:15:04,VALID,1001.98,VALID,0,VALID,88.6476,VALID,0,VALID,24.7743,VALID,342,VALID,0.189844,
2008-11-26, 02:16:04,VALID,1001.97,VALID,0,VALID,88.64,VALID,0,VALID,24.7548,VALID,316,VALID,0.509375,
2008-11-26, 02:17:04,VALID,1001.95,VALID,0,VALID,88.6628,VALID,0,VALID,24.7529,VALID,314,VALID,0.272266,
2008-11-26, 02:18:04,VALID,1001.92,VALID,0,VALID,88.701,VALID,0,VALID,24.7548,VALID,314,VALID,0.179688,
2008-11-26, 02:19:04,VALID,1001.91,VALID,0,VALID,88.7086,VALID,0,VALID,24.7548,VALID,314,VALID,0.0078125,
2008-11-26, 02:20:04,VALID,1001.86,VALID,0,VALID,88.7925,VALID,0,VALID,24.7353,VALID,314,VALID,0.111719,
2008-11-26, 02:21:04,VALID,1001.87,VALID,0,VALID,88.9299,VALID,0.100563,VALID,24.7353,VALID,314,VALID,0.273828,
2008-11-26, 02:22:04,VALID,1001.82,VALID,0,VALID,88.9756,VALID,0,VALID,24.7159,VALID,340,VALID,0.883594,
2008-11-26, 02:23:04,VALID,1001.84,VALID,0,VALID,88.8993,VALID,0,VALID,24.7353,VALID,311,VALID,0.719141,
2008-11-26, 02:24:04,VALID,1001.81,VALID,0,VALID,88.6857,VALID,0,VALID,24.7743,VALID,344,VALID,0.608203,
2008-11-26, 02:25:04,VALID,1001.77,VALID,0,VALID,88.6323,VALID,0,VALID,24.7937,VALID,344,VALID,0.009375,
2008-11-26, 02:26:04,VALID,1001.78,VALID,0,VALID,88.6094,VALID,0,VALID,24.8132,VALID,319,VALID,0.141406,
2008-11-26, 02:27:04,VALID,1001.73,VALID,0,VALID,88.6094,VALID,0,VALID,24.8346,VALID,320,VALID,0.0308594,
2008-11-26, 02:28:04,VALID,1001.7,VALID,0,VALID,88.6476,VALID,0,VALID,24.7937,VALID,320,VALID,0.106641,
2008-11-26, 02:29:04,VALID,1001.71,VALID,0,VALID,88.6323,VALID,0,VALID,24.7937,VALID,343,VALID,0.377734,
2008-11-26, 02:30:04,VALID,1001.69,VALID,0,VALID,88.6552,VALID,0,VALID,24.7937,VALID,343,VALID,0.323828,
2008-11-26, 02:31:04,VALID,1001.68,VALID,0,VALID,88.5866,VALID,0,VALID,24.7937,VALID,332,VALID,0.694141,
2008-11-26, 02:32:04,VALID,1001.66,VALID,0,VALID,88.5789,VALID,0,VALID,24.7937,VALID,353,VALID,0.595703,
2008-11-26, 02:33:04,VALID,1001.65,VALID,0,VALID,88.5484,VALID,0,VALID,24.8132,VALID,356,VALID,0.560938,
2008-11-26, 02:34:04,VALID,1001.63,VALID,0,VALID,88.4416,VALID,0.100563,VALID,24.8132,VALID,356,VALID,0.254687,
2008-11-26, 02:35:04,VALID,1001.64,VALID,0,VALID,88.4874,VALID,0.100563,VALID,24.8113,VALID,356,VALID,0.171484,
2008-11-26, 02:36:04,VALID,1001.6,VALID,0,VALID,88.4645,VALID,0,VALID,24.7919,VALID,355,VALID,0.0664063,
2008-11-26, 02:37:04,VALID,1001.6,VALID,0,VALID,88.5789,VALID,0,VALID,24.8132,VALID,355,VALID,0.261328,
2008-11-26, 02:38:04,VALID,1001.61,VALID,0,VALID,88.5866,VALID,0,VALID,24.7724,VALID,355,VALID,0.489844,
2008-11-26, 02:39:04,VALID,1001.59,VALID,0,VALID,88.4645,VALID,0,VALID,24.7937,VALID,354,VALID,0.61875,
2008-11-26, 02:40:04,VALID,1001.58,VALID,0,VALID,88.2814,VALID,0,VALID,24.8327,VALID,356,VALID,0.414063,
2008-11-26, 02:41:04,VALID,1001.57,VALID,0,VALID,88.1975,VALID,0,VALID,24.8522,VALID,356,VALID,0.0269531,
2008-11-26, 02:42:04,VALID,1001.55,VALID,0,VALID,88.2204,VALID,0,VALID,24.8716,VALID,293,VALID,0.250391,
2008-11-26, 02:43:04,VALID,1001.53,VALID,0,VALID,88.2585,VALID,0,VALID,24.8716,VALID,294,VALID,0.162891,
2008-11-26, 02:44:04,VALID,1001.52,VALID,0,VALID,88.1899,VALID,0,VALID,24.8522,VALID,356,VALID,0.333594,
2008-11-26, 02:45:04,VALID,1001.5,VALID,0,VALID,88.1517,VALID,0,VALID,24.8716,VALID,354,VALID,0.192578,
2008-11-26, 02:46:04,VALID,1001.52,VALID,0,VALID,88.1593,VALID,0,VALID,24.8716,VALID,354,VALID,0.101953,
2008-11-26, 02:47:04,VALID,1001.53,VALID,0,VALID,88.2585,VALID,0,VALID,24.8716,VALID,354,VALID,0,
2008-11-26, 02:48:04,VALID,1001.51,VALID,0,VALID,88.228,VALID,0.100563,VALID,24.8735,VALID,294,VALID,0.39375,
2008-11-26, 02:49:04,VALID,1001.54,VALID,0,VALID,88.2585,VALID,0,VALID,24.8716,VALID,334,VALID,0.253516,
2008-11-26, 02:50:04,VALID,1001.52,VALID,0,VALID,88.2356,VALID,0.100563,VALID,24.8911,VALID,345,VALID,0.508203,
2008-11-26, 02:51:04,VALID,1001.53,VALID,0,VALID,88.0449,VALID,0,VALID,24.8911,VALID,337,VALID,0.0878906,
2008-11-26, 02:52:04,VALID,1001.5,VALID,0,VALID,88.0831,VALID,0,VALID,24.9106,VALID,337,VALID,0.323828,
2008-11-26, 02:53:04,VALID,1001.52,VALID,0,VALID,87.9381,VALID,0,VALID,24.9106,VALID,337,VALID,0.445313,
2008-11-26, 02:54:04,VALID,1001.53,VALID,0,VALID,88.1136,VALID,0,VALID,24.9106,VALID,345,VALID,0.580469,
2008-11-26, 02:55:04,VALID,1001.52,VALID,0,VALID,88.3806,VALID,0.100563,VALID,24.8911,VALID,346,VALID,0.348828,
2008-11-26, 02:56:04,VALID,1001.51,VALID,0,VALID,88.6171,VALID,0,VALID,24.7937,VALID,346,VALID,0.339063,
2008-11-26, 02:57:04,VALID,1001.53,VALID,0,VALID,89.0824,VALID,0,VALID,24.7159,VALID,346,VALID,0.423047,
2008-11-26, 02:58:04,VALID,1001.51,VALID,0,VALID,89.4639,VALID,0,VALID,24.6185,VALID,346,VALID,0.374219,
2008-11-26, 02:59:04,VALID,1001.51,VALID,0,VALID,89.8987,VALID,0,VALID,24.5017,VALID,347,VALID,0.489844,
2008-11-26, 03:00:04,VALID,1001.52,VALID,0,VALID,90.2268,VALID,0,VALID,24.4433,VALID,347,VALID,0.446094,
2008-11-26, 03:01:04,VALID,1001.52,VALID,0,VALID,90.6235,VALID,0.100563,VALID,24.3867,VALID,347,VALID,0.369922,
2008-11-26, 03:02:04,VALID,1001.52,VALID,0,VALID,90.9286,VALID,0,VALID,24.3265,VALID,347,VALID,0.299219,
2008-11-26, 03:03:04,VALID,1001.52,VALID,0,VALID,91.1804,VALID,0,VALID,24.2681,VALID,347,VALID,0,
2008-11-26, 03:04:04,VALID,1001.52,VALID,0,VALID,91.333,VALID,0.100563,VALID,24.2681,VALID,347,VALID,0,
2008-11-26, 03:05:04,VALID,1001.51,VALID,0,VALID,91.4779,VALID,0,VALID,24.2486,VALID,347,VALID,0.24375,
2008-11-26, 03:06:04,VALID,1001.5,VALID,0,VALID,91.5542,VALID,0,VALID,24.2486,VALID,347,VALID,0.132813,
2008-11-26, 03:07:04,VALID,1001.49,VALID,0,VALID,91.6763,VALID,0,VALID,24.2291,VALID,347,VALID,0.173047,
2008-11-26, 03:08:04,VALID,1001.48,VALID,0,VALID,91.8441,VALID,0,VALID,24.2291,VALID,347,VALID,0.123828,
2008-11-26, 03:09:04,VALID,1001.49,VALID,0,VALID,91.9814,VALID,0,VALID,24.1689,VALID,347,VALID,0.254687,
2008-11-26, 03:10:04,VALID,1001.5,VALID,0,VALID,92.1264,VALID,0,VALID,24.1707,VALID,347,VALID,0.248437,
2008-11-26, 03:11:04,VALID,1001.5,VALID,0,VALID,92.2713,VALID,0,VALID,24.1707,VALID,347,VALID,0,
2008-11-26, 03:12:04,VALID,1001.5,VALID,0,VALID,92.4086,VALID,0.100563,VALID,24.1513,VALID,347,VALID,0.388281,
2008-11-26, 03:13:04,VALID,1001.5,VALID,0,VALID,92.5307,VALID,0,VALID,24.1123,VALID,347,VALID,0.407031,
2008-11-26, 03:14:04,VALID,1001.49,VALID,0,VALID,92.668,VALID,0,VALID,24.1123,VALID,347,VALID,0.236719,
2008-11-26, 03:15:04,VALID,1001.46,VALID,0,VALID,92.8435,VALID,0,VALID,24.0521,VALID,347,VALID,0.335547,
2008-11-26, 03:16:04,VALID,1001.48,VALID,0,VALID,92.9732,VALID,0,VALID,24.0539,VALID,347,VALID,0.339844,
2008-11-26, 03:17:04,VALID,1001.49,VALID,0,VALID,93.1105,VALID,0.100563,VALID,24.0326,VALID,348,VALID,0.420703,
2008-11-26, 03:18:04,VALID,1001.49,VALID,0,VALID,93.1639,VALID,0,VALID,24.0539,VALID,348,VALID,0.282813,
2008-11-26, 03:19:04,VALID,1001.51,VALID,0,VALID,93.2325,VALID,0,VALID,24.0345,VALID,348,VALID,0.290625,
2008-11-26, 03:20:04,VALID,1001.49,VALID,0,VALID,93.2859,VALID,0,VALID,24.0363,VALID,348,VALID,0.351563,
2008-11-26, 03:21:04,VALID,1001.51,VALID,0,VALID,93.3317,VALID,0.100563,VALID,23.9955,VALID,348,VALID,0.345703,
2008-11-26, 03:22:04,VALID,1001.49,VALID,0,VALID,93.3928,VALID,0,VALID,23.9761,VALID,348,VALID,0.464063,
2008-11-26, 03:23:04,VALID,1001.48,VALID,0,VALID,93.4843,VALID,0,VALID,23.9371,VALID,348,VALID,0.291797,
2008-11-26, 03:24:04,VALID,1001.5,VALID,0,VALID,93.6064,VALID,0.100563,VALID,23.9566,VALID,348,VALID,0.404297,
2008-11-26, 03:25:04,VALID,1001.51,VALID,0,VALID,93.6903,VALID,0.100563,VALID,23.9566,VALID,348,VALID,0.454297,
2008-11-26, 03:26:04,VALID,1001.49,VALID,0,VALID,93.6826,VALID,0.100563,VALID,23.9159,VALID,348,VALID,0.269141,
2008-11-26, 03:27:04,VALID,1001.53,VALID,0,VALID,93.7284,VALID,0,VALID,23.9371,VALID,348,VALID,0.244141,
2008-11-26, 03:28:04,VALID,1001.54,VALID,0,VALID,93.7818,VALID,0.100563,VALID,23.9177,VALID,348,VALID,0.182422,
2008-11-26, 03:29:04,VALID,1001.5,VALID,0,VALID,93.8429,VALID,0.100563,VALID,23.9177,VALID,348,VALID,0.371484,
2008-11-26, 03:30:04,VALID,1001.54,VALID,0,VALID,93.9039,VALID,0,VALID,23.9177,VALID,348,VALID,0.191406,
2008-11-26, 03:31:04,VALID,1001.52,VALID,0,VALID,93.9344,VALID,0.100563,VALID,23.9177,VALID,348,VALID,0.194531,
2008-11-26, 03:32:04,VALID,1001.51,VALID,0,VALID,94.0336,VALID,0,VALID,23.9177,VALID,348,VALID,0.161719,
2008-11-26, 03:33:04,VALID,1001.53,VALID,0,VALID,94.0412,VALID,0,VALID,23.8982,VALID,348,VALID,0.176172,
2008-11-26, 03:34:04,VALID,1001.55,VALID,0,VALID,94.0336,VALID,0,VALID,23.8982,VALID,348,VALID,0.242188,
2008-11-26, 03:35:04,VALID,1001.54,VALID,0,VALID,94.087,VALID,0,VALID,23.8787,VALID,348,VALID,0.0859375,
2008-11-26, 03:36:04,VALID,1001.53,VALID,0,VALID,94.1175,VALID,0,VALID,23.8982,VALID,348,VALID,0.308984,
2008-11-26, 03:37:04,VALID,1001.57,VALID,0,VALID,94.1175,VALID,0.100563,VALID,23.8787,VALID,348,VALID,0.234766,
2008-11-26, 03:38:04,VALID,1001.51,VALID,0,VALID,94.1328,VALID,0.100563,VALID,23.8787,VALID,348,VALID,0.260938,
2008-11-26, 03:39:04,VALID,1001.5,VALID,0,VALID,94.1556,VALID,0.100563,VALID,23.8593,VALID,348,VALID,0.250781,
2008-11-26, 03:40:04,VALID,1001.5,VALID,0,VALID,94.1633,VALID,0,VALID,23.8593,VALID,348,VALID,0.01875,
2008-11-26, 03:41:04,VALID,1001.47,VALID,0,VALID,94.1938,VALID,0.100563,VALID,23.8398,VALID,348,VALID,0.238281,